CST,Max TemperatureF,Mean TemperatureF,Min TemperatureF,Max Dew PointF,MeanDew PointF,Min DewpointF,Max Humidity, Mean Humidity, Min Humidity, Max Sea Level PressureIn, Mean Sea Level PressureIn, Min Sea Level PressureIn, Max VisibilityMiles, Mean VisibilityMiles, Min VisibilityMiles, Max Wind SpeedMPH, Mean Wind SpeedMPH, Max Gust SpeedMPH,PrecipitationIn, CloudCover, Events, WindDirDegrees
2012-12-1,51,42,32,50,40,30,100,90,79,30.06,29.87,29.77,4,2,0,18,10,23,0.00,8,Fog,187
2012-12-2,59,43,27,45,37,27,96,74,51,30.02,29.93,29.86,10,3,0,22,7,26,0.00,3,Fog,230
2012-12-3,63,49,34,55,45,25,100,78,55,30.01,29.75,29.60,10,5,0,32,15,38,0.00,5,Fog,202
2012-12-4,46,31,16,25,20,12,73,57,41,30.41,30.22,30.01,10,10,10,21,10,24,0.00,0,,299
2012-12-5,40,28,15,29,17,10,80,60,40,30.42,30.23,29.98,10,10,10,26,15,35,0.00,1,,132
2012-12-6,46,40,34,37,32,25,82,72,62,30.01,29.93,29.88,10,10,6,23,12,31,0.08,5,Rain,269
2012-12-7,35,31,27,25,23,21,85,72,59,30.02,30.00,29.96,10,10,9,15,10,17,0.00,7,,20
2012-12-8,36,28,19,28,24,18,92,76,59,30.07,30.01,29.94,10,7,2,20,9,24,T,5,Snow,92
2012-12-9,33,26,19,31,27,16,92,87,81,29.97,29.86,29.77,10,4,0,29,14,36,0.14,8,Fog-Rain-Snow,184
2012-12-10,19,14,8,13,7,3,92,83,73,30.02,29.96,29.89,10,9,5,29,12,33,T,5,Snow,297
2012-12-11,33,22,11,25,19,9,88,78,67,30.04,29.93,29.83,10,8,1,15,8,18,T,7,Snow,242
2012-12-12,48,32,16,25,19,13,92,65,37,30.03,30.00,29.94,10,10,10,25,14,36,0.00,0,,183
2012-12-13,46,33,20,22,18,15,92,65,37,30.13,30.04,29.96,10,9,5,20,10,25,0.00,0,,237
2012-12-14,50,34,18,30,24,14,91,64,36,30.13,29.97,29.76,10,8,3,20,9,24,0.00,2,,126
2012-12-15,44,39,33,41,38,30,96,91,58,29.72,29.56,29.47,10,3,0,18,12,25,0.80,8,Fog-Rain,186
2012-12-16,33,26,19,30,22,17,92,87,81,29.85,29.74,29.61,8,4,2,20,13,23,T,8,Snow,308
2012-12-17,28,24,19,23,20,17,91,85,78,29.82,29.75,29.69,8,5,2,13,5,14,T,8,Snow,66
2012-12-18,32,29,25,28,26,21,92,85,78,29.88,29.67,29.55,6,3,1,16,9,18,0.04,8,Snow,89
2012-12-19,34,32,29,29,28,27,92,87,82,30.03,29.94,29.85,8,5,1,18,8,24,0.07,8,Snow,55
2012-12-20,30,19,8,28,16,3,92,84,76,30.09,29.84,29.73,3,1,0,41,29,48,0.11,8,Fog-Snow,337
2012-12-21,17,10,3,9,3,-2,88,77,66,30.33,30.24,30.04,10,8,2,29,11,33,0.00,2,Snow,299
2012-12-22,29,17,4,17,9,1,88,76,63,30.26,30.09,29.98,10,9,6,14,7,17,0.00,0,,173
2012-12-23,20,15,9,14,10,5,88,81,73,30.12,30.06,29.99,8,6,2,17,9,22,0.00,6,,20
2012-12-24,18,9,0,12,7,-6,86,80,73,30.32,30.09,29.96,10,7,2,23,14,26,T,5,Snow,331
2012-12-25,8,2,-4,0,-5,-9,79,74,69,30.52,30.45,30.34,10,10,10,20,11,21,0.00,0,,335
2012-12-26,18,8,-3,10,1,-7,88,81,73,30.42,30.32,30.21,10,10,8,12,8,16,0.00,2,,359
2012-12-27,22,10,-2,18,12,-3,91,81,71,30.28,30.16,30.08,10,5,1,15,7,17,0.05,6,Snow,73
2012-12-28,24,21,17,18,17,12,91,86,80,30.10,30.02,29.94,9,4,2,16,8,20,0.01,8,Snow,22
2012-12-29,17,10,2,12,6,-1,88,82,76,30.26,30.15,30.00,10,6,1,15,10,18,T,5,Snow,282
2012-12-30,27,14,0,20,6,-4,95,82,68,30.28,30.16,29.99,10,6,1,17,8,22,T,3,,193
2012-12-31,19,8,-4,12,4,-9,84,74,63,30.31,30.19,30.05,10,9,5,25,13,31,0.00,2,,326